This is the latest recevied weather packets stored in our database for station/object KK4WXG. If no packets are shown the sender has not sent any weather packets the latest 10 day(s).
| Time | Temp. | Humidity | Pressure | Rain* | Wind** | Luminosity | Snow |
|---|---|---|---|---|---|---|---|
| 1777219436 | 11.67° C | 71% | 1019.2 hPa | 0 mm | - | 266 W/m² | - |
| 1777219132 | 11.67° C | 71% | 1019 hPa | 0 mm | - | 257 W/m² | - |
| 1777218829 | 11.67° C | 73% | 1019.2 hPa | 0 mm | - | 249 W/m² | - |
| 1777218524 | 11.67° C | 73% | 1019.1 hPa | 0 mm | - | 323 W/m² | - |
| 1777218220 | 11.67° C | 71% | 1019.1 hPa | 0 mm | - | 261 W/m² | - |
| 1777217917 | 11.67° C | 72% | 1019.2 hPa | 0 mm | - | 369 W/m² | - |
| 1777217617 | 11.67° C | 73% | 1019.2 hPa | 0 mm | - | 315 W/m² | - |
| 1777217313 | 11.67° C | 71% | 1019.3 hPa | 0 mm | - | 208 W/m² | - |
| 1777217009 | 11.67° C | 74% | 1019.1 hPa | 0 mm | - | 628 W/m² | - |
| 1777216707 | 11.67° C | 73% | 1019.1 hPa | 0 mm | - | 440 W/m² | - |
| 1777216402 | 11.67° C | 73% | 1019.2 hPa | 0 mm | - | 349 W/m² | - |
| 1777216101 | 11.67° C | 72% | 1019.2 hPa | 0 mm | - | 357 W/m² | - |
| 1777215796 | 11.67° C | 72% | 1019.2 hPa | 0 mm | - | 553 W/m² | - |
| 1777215493 | 11.67° C | 72% | 1019.2 hPa | 0 mm | - | 449 W/m² | - |
| 1777215189 | 11.11° C | 76% | 1019.2 hPa | 0 mm | - | 386 W/m² | - |
| 1777214884 | 11.11° C | 73% | 1019.3 hPa | 0 mm | - | 477 W/m² | - |
| 1777214583 | 11.67° C | 72% | 1019.1 hPa | 0 mm | - | 559 W/m² | - |
| 1777214279 | 12.22° C | 76% | 1018.8 hPa | 0 mm | - | 489 W/m² | - |
| 1777213977 | 11.67° C | 77% | 1018.7 hPa | 0 mm | - | 618 W/m² | - |
| 1777213673 | 11.11° C | 76% | 1018.9 hPa | 0 mm | - | 428 W/m² | - |
| 1777213369 | 10.56° C | 78% | 1018.8 hPa | 0 mm | - | 518 W/m² | - |
| 1777213067 | 10.56° C | 79% | 1018.9 hPa | 0 mm | - | 398 W/m² | - |
| 1777212764 | 10.56° C | 80% | 1018.6 hPa | 0 mm | - | 489 W/m² | - |
| 1777212458 | 10° C | 81% | 1018.6 hPa | 0 mm | - | 334 W/m² | - |
| 1777212153 | 10° C | 81% | 1018.8 hPa | 0 mm | - | 448 W/m² | - |
* Rain latest hour (hover to see other rain measurements)
** Current wind speed in m/s (hover to see current wind gust speed)